Time,TemperatureF,DewpointF,PressureIn,WindDirection,WindDirectionDegrees,WindSpeedMPH,WindSpeedGustMPH,Humidity,HourlyPrecipIn,Conditions,Clouds,dailyrainin,SoftwareType,DateUTC
2013-06-11 00:03:00,60.0,60.0,29.72,SSE,164,4.0,-999.0,100,-99.99,,,-99.99,,2013-06-11 04:03:00,
2013-06-11 00:13:00,60.0,60.0,29.72,SSE,164,4.0,-999.0,100,-99.99,,,-99.99,,2013-06-11 04:13:00,
2013-06-11 00:23:00,59.0,59.0,29.72,SSE,162,3.0,-999.0,100,-99.99,,,-99.99,,2013-06-11 04:23:00,
2013-06-11 00:33:00,59.0,59.0,29.72,South,175,4.0,-999.0,100,-99.99,,,-99.99,,2013-06-11 04:33:00,
2013-06-11 00:42:00,59.0,59.0,29.72,South,175,4.0,-999.0,100,-99.99,,,-99.99,,2013-06-11 04:42:00,
2013-06-11 00:53:00,59.0,59.0,29.71,SSE,148,4.0,-999.0,100,-99.99,,,-99.99,,2013-06-11 04:53:00,
2013-06-11 01:02:00,59.0,59.0,29.71,SSE,167,3.0,-999.0,100,-99.99,,,-99.99,,2013-06-11 05:02:00,
2013-06-11 01:12:00,59.0,59.0,29.71,SSE,167,3.0,-999.0,100,-99.99,,,-99.99,,2013-06-11 05:12:00,
2013-06-11 01:22:00,59.0,59.0,29.70,SE,144,5.0,-999.0,100,-99.99,,,-99.99,,2013-06-11 05:22:00,
2013-06-11 01:32:00,59.0,59.0,29.69,SSE,158,6.0,-999.0,100,-99.99,,,-99.99,,2013-06-11 05:32:00,
2013-06-11 01:42:00,59.0,59.0,29.69,SSE,158,6.0,-999.0,100,-99.99,,,-99.99,,2013-06-11 05:42:00,
2013-06-11 01:52:00,59.0,59.0,29.68,SSE,155,3.0,-999.0,100,-99.99,,,-99.99,,2013-06-11 05:52:00,
2013-06-11 02:02:00,59.0,59.0,29.68,South,169,2.0,-999.0,100,-99.99,,,-99.99,,2013-06-11 06:02:00,
2013-06-11 02:12:00,59.0,59.0,29.68,South,169,2.0,-999.0,100,-99.99,,,-99.99,,2013-06-11 06:12:00,
2013-06-11 02:22:00,59.0,59.0,29.67,SSE,154,3.0,-999.0,100,-99.99,,,-99.99,,2013-06-11 06:22:00,
2013-06-11 02:32:00,59.0,59.0,29.67,SSE,150,1.0,-999.0,100,-99.99,,,-99.99,,2013-06-11 06:32:00,
2013-06-11 02:42:00,59.0,59.0,29.67,SSE,150,1.0,-999.0,100,-99.99,,,-99.99,,2013-06-11 06:42:00,
2013-06-11 02:52:00,59.0,59.0,29.66,ESE,112,2.0,-999.0,100,-99.99,,,-99.99,,2013-06-11 06:52:00,
2013-06-11 03:02:00,59.0,59.0,29.65,SSE,158,3.0,-999.0,100,-99.99,,,-99.99,,2013-06-11 07:02:00,
2013-06-11 03:13:00,58.0,58.0,29.65,ESE,121,5.0,-999.0,100,-99.99,,,-99.99,,2013-06-11 07:13:00,
2013-06-11 03:22:00,58.0,58.0,29.65,ESE,121,5.0,-999.0,100,-99.99,,,-99.99,,2013-06-11 07:22:00,
2013-06-11 03:32:00,58.0,58.0,29.64,SSE,161,4.0,-999.0,100,-99.99,,,-99.99,,2013-06-11 07:32:00,
2013-06-11 03:42:00,58.0,58.0,29.63,South,176,5.0,-999.0,100,-99.99,,,-99.99,,2013-06-11 07:42:00,
2013-06-11 03:52:00,58.0,58.0,29.63,South,176,5.0,-999.0,100,-99.99,,,-99.99,,2013-06-11 07:52:00,
2013-06-11 04:02:00,58.0,58.0,29.63,South,186,4.0,-999.0,100,-99.99,,,-99.99,,2013-06-11 08:02:00,
2013-06-11 04:12:00,58.0,58.0,29.63,South,186,4.0,-999.0,100,-99.99,,,-99.99,,2013-06-11 08:12:00,
2013-06-11 04:22:00,58.0,58.0,29.62,South,169,3.0,-999.0,100,-99.99,,,-99.99,,2013-06-11 08:22:00,
2013-06-11 04:32:00,58.0,58.0,29.63,SSE,155,2.0,-999.0,100,-99.99,,,-99.99,,2013-06-11 08:32:00,
2013-06-11 04:42:00,58.0,58.0,29.63,SSE,155,2.0,-999.0,100,-99.99,,,-99.99,,2013-06-11 08:42:00,
2013-06-11 04:52:00,58.0,58.0,29.62,SSE,148,4.0,-999.0,100,-99.99,,,-99.99,,2013-06-11 08:52:00,
2013-06-11 05:02:00,58.0,58.0,29.62,SSE,161,1.0,-999.0,100,-99.99,,,-99.99,,2013-06-11 09:02:00,
2013-06-11 05:12:00,58.0,58.0,29.62,SSE,161,1.0,-999.0,100,-99.99,,,-99.99,,2013-06-11 09:12:00,
2013-06-11 05:22:00,58.0,58.0,29.63,SSE,148,2.0,-999.0,100,-99.99,,,-99.99,,2013-06-11 09:22:00,
2013-06-11 05:33:00,58.0,58.0,29.62,SSE,148,1.0,-999.0,100,-99.99,,,-99.99,,2013-06-11 09:33:00,
2013-06-11 05:43:00,58.0,58.0,29.62,SSE,148,1.0,-999.0,100,-99.99,,,-99.99,,2013-06-11 09:43:00,
2013-06-11 05:53:00,58.0,58.0,29.62,SSE,148,1.0,-999.0,100,-99.99,,,-99.99,,2013-06-11 09:53:00,
2013-06-11 06:03:00,58.0,58.0,29.62,SSE,158,2.0,-999.0,100,-99.99,,,-99.99,,2013-06-11 10:03:00,
2013-06-11 06:12:00,58.0,58.0,29.62,SSE,158,2.0,-999.0,100,-99.99,,,-99.99,,2013-06-11 10:12:00,
2013-06-11 06:23:00,58.0,58.0,29.62,SSE,148,2.0,-999.0,100,-99.99,,,-99.99,,2013-06-11 10:23:00,
2013-06-11 06:33:00,58.0,58.0,29.62,SSE,152,2.0,-999.0,100,-99.99,,,-99.99,,2013-06-11 10:33:00,
2013-06-11 06:42:00,58.0,58.0,29.62,SSE,152,2.0,-999.0,100,-99.99,,,-99.99,,2013-06-11 10:42:00,
2013-06-11 06:52:00,59.0,59.0,29.62,SSE,152,0.0,-999.0,100,-99.99,,,-99.99,,2013-06-11 10:52:00,
2013-06-11 07:02:00,59.0,59.0,29.61,SSE,158,3.0,-999.0,100,-99.99,,,-99.99,,2013-06-11 11:02:00,
2013-06-11 07:12:00,59.0,59.0,29.61,SSE,158,3.0,-999.0,100,-99.99,,,-99.99,,2013-06-11 11:12:00,
2013-06-11 07:22:00,59.0,59.0,29.62,ESE,114,3.0,-999.0,100,-99.99,,,-99.99,,2013-06-11 11:22:00,
2013-06-11 07:32:00,59.0,59.0,29.62,SE,138,2.0,-999.0,100,-99.99,,,-99.99,,2013-06-11 11:32:00,
2013-06-11 07:42:00,59.0,59.0,29.62,SE,138,2.0,-999.0,100,-99.99,,,-99.99,,2013-06-11 11:42:00,
2013-06-11 07:52:00,59.0,59.0,29.61,SE,138,3.0,-999.0,100,-99.99,,,-99.99,,2013-06-11 11:52:00,
2013-06-11 08:02:00,59.0,59.0,29.60,SE,136,3.0,-999.0,100,-99.99,,,-99.99,,2013-06-11 12:02:00,
2013-06-11 08:12:00,59.0,59.0,29.60,SE,136,3.0,-999.0,100,-99.99,,,-99.99,,2013-06-11 12:12:00,
2013-06-11 08:22:00,59.0,59.0,29.60,SE,143,3.0,-999.0,100,-99.99,,,-99.99,,2013-06-11 12:22:00,
2013-06-11 08:32:00,60.0,60.0,29.60,SSE,162,2.0,-999.0,100,-99.99,,,-99.99,,2013-06-11 12:32:00,
2013-06-11 08:42:00,61.0,61.0,29.60,SSE,148,3.0,-999.0,100,-99.99,,,-99.99,,2013-06-11 12:42:00,
2013-06-11 08:52:00,61.0,61.0,29.60,SSE,148,3.0,-999.0,100,-99.99,,,-99.99,,2013-06-11 12:52:00,
2013-06-11 09:02:00,61.0,61.0,29.59,ESE,114,4.0,-999.0,100,-99.99,,,-99.99,,2013-06-11 13:02:00,
2013-06-11 09:12:00,61.0,61.0,29.59,ESE,114,4.0,-999.0,100,-99.99,,,-99.99,,2013-06-11 13:12:00,
2013-06-11 09:22:00,62.0,62.0,29.59,SE,145,5.0,-999.0,100,-99.99,,,-99.99,,2013-06-11 13:22:00,
2013-06-11 09:32:00,62.0,62.0,29.58,SSE,154,4.0,-999.0,100,-99.99,,,-99.99,,2013-06-11 13:32:00,
2013-06-11 09:42:00,62.0,62.0,29.58,SSE,154,4.0,-999.0,100,-99.99,,,-99.99,,2013-06-11 13:42:00,
2013-06-11 09:52:00,63.0,63.0,29.58,SE,127,5.0,-999.0,100,-99.99,,,-99.99,,2013-06-11 13:52:00,
2013-06-11 10:02:00,65.0,65.0,29.57,SSE,162,3.0,-999.0,100,-99.99,,,-99.99,,2013-06-11 14:02:00,
2013-06-11 10:12:00,65.0,65.0,29.57,SSE,162,3.0,-999.0,100,-99.99,,,-99.99,,2013-06-11 14:12:00,
2013-06-11 10:22:00,66.0,66.0,29.56,SSE,168,1.0,-999.0,100,-99.99,,,-99.99,,2013-06-11 14:22:00,
2013-06-11 10:32:00,66.0,65.0,29.56,SSW,196,1.0,-999.0,96,-99.99,,,-99.99,,2013-06-11 14:32:00,
2013-06-11 10:42:00,66.0,65.0,29.56,SSW,196,1.0,-999.0,96,-99.99,,,-99.99,,2013-06-11 14:42:00,
2013-06-11 10:53:00,66.0,65.0,29.56,SSW,193,2.0,-999.0,95,-99.99,,,-99.99,,2013-06-11 14:53:00,
2013-06-11 11:02:00,66.0,65.0,29.55,SSW,193,0.0,-999.0,97,-99.99,,,-99.99,,2013-06-11 15:02:00,
2013-06-11 11:12:00,66.0,65.0,29.55,SSW,193,0.0,-999.0,97,-99.99,,,-99.99,,2013-06-11 15:12:00,
2013-06-11 11:22:00,66.0,66.0,29.55,SSW,193,0.0,-999.0,99,-99.99,,,-99.99,,2013-06-11 15:22:00,
2013-06-11 11:33:00,66.0,66.0,29.55,South,179,0.0,-999.0,99,-99.99,,,-99.99,,2013-06-11 15:33:00,
2013-06-11 11:43:00,66.0,66.0,29.55,South,179,0.0,-999.0,99,-99.99,,,-99.99,,2013-06-11 15:43:00,
2013-06-11 11:53:00,66.0,66.0,29.54,SSW,210,0.0,-999.0,99,-99.99,,,-99.99,,2013-06-11 15:53:00,
2013-06-11 12:03:00,65.0,65.0,29.54,SSW,210,0.0,-999.0,100,-99.99,,,-99.99,,2013-06-11 16:03:00,
2013-06-11 12:12:00,65.0,65.0,29.54,SSW,210,0.0,-999.0,100,-99.99,,,-99.99,,2013-06-11 16:12:00,
2013-06-11 12:22:00,66.0,66.0,29.54,SSW,210,0.0,-999.0,100,-99.99,,,-99.99,,2013-06-11 16:22:00,
2013-06-11 12:33:00,65.0,65.0,29.54,SSW,210,0.0,-999.0,100,-99.99,,,-99.99,,2013-06-11 16:33:00,
2013-06-11 12:42:00,65.0,65.0,29.54,SSW,210,0.0,-999.0,100,-99.99,,,-99.99,,2013-06-11 16:42:00,
2013-06-11 12:53:00,65.0,65.0,29.53,SSW,210,0.0,-999.0,100,-99.99,,,-99.99,,2013-06-11 16:53:00,
2013-06-11 13:02:00,65.0,65.0,29.53,NW,322,1.0,-999.0,100,-99.99,,,-99.99,,2013-06-11 17:02:00,
2013-06-11 13:12:00,65.0,65.0,29.53,NW,322,1.0,-999.0,100,-99.99,,,-99.99,,2013-06-11 17:12:00,
2013-06-11 13:22:00,64.0,64.0,29.54,NW,312,8.0,-999.0,100,-99.99,,,-99.99,,2013-06-11 17:22:00,
2013-06-11 13:32:00,63.0,63.0,29.55,SW,232,6.0,-999.0,100,-99.99,,,-99.99,,2013-06-11 17:32:00,
2013-06-11 13:43:00,63.0,63.0,29.55,NW,319,5.0,-999.0,100,-99.99,,,-99.99,,2013-06-11 17:43:00,
2013-06-11 13:53:00,63.0,63.0,29.55,NW,319,5.0,-999.0,100,-99.99,,,-99.99,,2013-06-11 17:53:00,
2013-06-11 14:02:00,62.0,62.0,29.55,West,274,7.0,-999.0,100,-99.99,,,-99.99,,2013-06-11 18:02:00,
2013-06-11 14:12:00,62.0,62.0,29.55,West,274,7.0,-999.0,100,-99.99,,,-99.99,,2013-06-11 18:12:00,
2013-06-11 14:22:00,62.0,62.0,29.55,WNW,298,5.0,-999.0,100,-99.99,,,-99.99,,2013-06-11 18:22:00,
2013-06-11 14:33:00,62.0,62.0,29.55,NW,316,8.0,-999.0,100,-99.99,,,-99.99,,2013-06-11 18:33:00,
2013-06-11 14:43:00,62.0,62.0,29.55,NW,316,8.0,-999.0,100,-99.99,,,-99.99,,2013-06-11 18:43:00,
2013-06-11 14:52:00,62.0,62.0,29.55,NW,305,7.0,-999.0,100,-99.99,,,-99.99,,2013-06-11 18:52:00,
2013-06-11 15:02:00,62.0,62.0,29.56,NW,309,4.0,-999.0,100,-99.99,,,-99.99,,2013-06-11 19:02:00,
2013-06-11 15:12:00,62.0,62.0,29.56,NW,309,4.0,-999.0,100,-99.99,,,-99.99,,2013-06-11 19:12:00,
2013-06-11 15:22:00,61.0,61.0,29.56,WNW,302,5.0,-999.0,100,-99.99,,,-99.99,,2013-06-11 19:22:00,
2013-06-11 15:33:00,61.0,61.0,29.56,WNW,298,5.0,-999.0,100,-99.99,,,-99.99,,2013-06-11 19:33:00,
2013-06-11 15:42:00,61.0,61.0,29.56,WNW,298,5.0,-999.0,100,-99.99,,,-99.99,,2013-06-11 19:42:00,
2013-06-11 15:53:00,61.0,61.0,29.56,West,264,7.0,-999.0,100,-99.99,,,-99.99,,2013-06-11 19:53:00,
2013-06-11 16:03:00,60.0,60.0,29.57,NW,318,8.0,-999.0,100,-99.99,,,-99.99,,2013-06-11 20:03:00,
2013-06-11 16:12:00,60.0,60.0,29.57,NW,318,8.0,-999.0,100,-99.99,,,-99.99,,2013-06-11 20:12:00,
2013-06-11 16:22:00,60.0,60.0,29.57,NW,313,7.0,-999.0,100,-99.99,,,-99.99,,2013-06-11 20:22:00,
2013-06-11 16:32:00,60.0,60.0,29.57,North,349,8.0,-999.0,100,-99.99,,,-99.99,,2013-06-11 20:32:00,
2013-06-11 16:42:00,60.0,60.0,29.57,North,349,8.0,-999.0,100,-99.99,,,-99.99,,2013-06-11 20:42:00,
2013-06-11 16:52:00,60.0,60.0,29.57,WNW,284,7.0,-999.0,100,-99.99,,,-99.99,,2013-06-11 20:52:00,
2013-06-11 17:02:00,60.0,60.0,29.57,NW,320,8.0,-999.0,100,-99.99,,,-99.99,,2013-06-11 21:02:00,
2013-06-11 17:12:00,60.0,60.0,29.57,NW,320,8.0,-999.0,100,-99.99,,,-99.99,,2013-06-11 21:12:00,
2013-06-11 17:22:00,60.0,60.0,29.57,NW,311,7.0,-999.0,100,-99.99,,,-99.99,,2013-06-11 21:22:00,
2013-06-11 17:33:00,60.0,60.0,29.57,NNW,329,8.0,-999.0,100,-99.99,,,-99.99,,2013-06-11 21:33:00,
2013-06-11 17:42:00,60.0,60.0,29.57,NNW,329,8.0,-999.0,100,-99.99,,,-99.99,,2013-06-11 21:42:00,
2013-06-11 17:53:00,60.0,60.0,29.57,NNW,332,6.0,-999.0,100,-99.99,,,-99.99,,2013-06-11 21:53:00,
2013-06-11 18:03:00,60.0,60.0,29.57,NW,318,6.0,-999.0,100,-99.99,,,-99.99,,2013-06-11 22:03:00,
2013-06-11 18:12:00,60.0,60.0,29.57,NW,318,6.0,-999.0,100,-99.99,,,-99.99,,2013-06-11 22:12:00,
2013-06-11 18:22:00,60.0,60.0,29.57,NW,313,7.0,-999.0,100,-99.99,,,-99.99,,2013-06-11 22:22:00,
2013-06-11 18:33:00,60.0,60.0,29.58,NW,315,5.0,-999.0,100,-99.99,,,-99.99,,2013-06-11 22:33:00,
2013-06-11 18:42:00,60.0,60.0,29.58,NW,315,5.0,-999.0,100,-99.99,,,-99.99,,2013-06-11 22:42:00,
2013-06-11 18:52:00,60.0,60.0,29.58,North,1,8.0,-999.0,100,-99.99,,,-99.99,,2013-06-11 22:52:00,
2013-06-11 19:02:00,59.0,59.0,29.59,NNW,336,7.0,-999.0,100,-99.99,,,-99.99,,2013-06-11 23:02:00,
2013-06-11 19:12:00,59.0,59.0,29.59,NNW,336,7.0,-999.0,100,-99.99,,,-99.99,,2013-06-11 23:12:00,
2013-06-11 19:22:00,59.0,59.0,29.59,NW,320,7.0,-999.0,100,-99.99,,,-99.99,,2013-06-11 23:22:00,
2013-06-11 19:32:00,58.0,58.0,29.60,NW,319,8.0,-999.0,100,-99.99,,,-99.99,,2013-06-11 23:32:00,
2013-06-11 19:42:00,58.0,58.0,29.60,NW,319,8.0,-999.0,100,-99.99,,,-99.99,,2013-06-11 23:42:00,
2013-06-11 19:52:00,58.0,58.0,29.61,WNW,285,7.0,-999.0,100,-99.99,,,-99.99,,2013-06-11 23:52:00,
2013-06-11 20:02:00,58.0,58.0,29.61,NW,306,6.0,-999.0,100,-99.99,,,-99.99,,2013-06-12 00:02:00,
2013-06-11 20:12:00,58.0,58.0,29.61,NW,306,6.0,-999.0,100,-99.99,,,-99.99,,2013-06-12 00:12:00,
2013-06-11 20:22:00,58.0,58.0,29.61,NW,312,8.0,-999.0,100,-99.99,,,-99.99,,2013-06-12 00:22:00,
2013-06-11 20:32:00,58.0,58.0,29.61,NW,309,7.0,-999.0,100,-99.99,,,-99.99,,2013-06-12 00:32:00,
2013-06-11 20:42:00,58.0,58.0,29.61,NW,309,7.0,-999.0,100,-99.99,,,-99.99,,2013-06-12 00:42:00,
2013-06-11 20:52:00,58.0,58.0,29.62,NNW,336,6.0,-999.0,100,-99.99,,,-99.99,,2013-06-12 00:52:00,
2013-06-11 21:02:00,58.0,58.0,29.62,NNW,337,6.0,-999.0,100,-99.99,,,-99.99,,2013-06-12 01:02:00,
2013-06-11 21:12:00,58.0,58.0,29.62,NNW,337,6.0,-999.0,100,-99.99,,,-99.99,,2013-06-12 01:12:00,
2013-06-11 21:22:00,58.0,58.0,29.62,NW,318,5.0,-999.0,100,-99.99,,,-99.99,,2013-06-12 01:22:00,
2013-06-11 21:32:00,58.0,58.0,29.62,NW,318,5.0,-999.0,100,-99.99,,,-99.99,,2013-06-12 01:32:00,
2013-06-11 21:42:00,58.0,58.0,29.62,NW,318,5.0,-999.0,100,-99.99,,,-99.99,,2013-06-12 01:42:00,
2013-06-11 21:52:00,58.0,58.0,29.62,NW,313,6.0,-999.0,100,-99.99,,,-99.99,,2013-06-12 01:52:00,
2013-06-11 22:02:00,58.0,58.0,29.63,NW,306,6.0,-999.0,100,-99.99,,,-99.99,,2013-06-12 02:02:00,
2013-06-11 22:12:00,58.0,58.0,29.63,NW,306,6.0,-999.0,100,-99.99,,,-99.99,,2013-06-12 02:12:00,
2013-06-11 22:22:00,57.0,57.0,29.63,WNW,302,6.0,-999.0,100,-99.99,,,-99.99,,2013-06-12 02:22:00,
2013-06-11 22:32:00,57.0,57.0,29.64,NW,309,6.0,-999.0,100,-99.99,,,-99.99,,2013-06-12 02:32:00,
2013-06-11 22:42:00,57.0,57.0,29.65,NW,325,5.0,-999.0,100,-99.99,,,-99.99,,2013-06-12 02:42:00,
2013-06-11 22:52:00,57.0,57.0,29.65,NW,325,5.0,-999.0,100,-99.99,,,-99.99,,2013-06-12 02:52:00,
2013-06-11 23:02:00,57.0,57.0,29.64,NW,322,4.0,-999.0,100,-99.99,,,-99.99,,2013-06-12 03:02:00,
2013-06-11 23:12:00,57.0,57.0,29.64,NW,322,4.0,-999.0,100,-99.99,,,-99.99,,2013-06-12 03:12:00,
2013-06-11 23:22:00,57.0,57.0,29.65,NW,308,5.0,-999.0,100,-99.99,,,-99.99,,2013-06-12 03:22:00,
2013-06-11 23:33:00,57.0,57.0,29.65,North,349,6.0,-999.0,100,-99.99,,,-99.99,,2013-06-12 03:33:00,
2013-06-11 23:43:00,57.0,57.0,29.65,North,349,6.0,-999.0,100,-99.99,,,-99.99,,2013-06-12 03:43:00,
2013-06-11 23:53:00,56.0,56.0,29.65,NNW,330,5.0,-999.0,100,-99.99,,,-99.99,,2013-06-12 03:53:00,